| time (UTC) | temp C | wind direction | speed KPH | gust KPH | rain 1hr cm | rain 24hr cm | rain mn cm | humidity % | barometer mb |
| 20260506023034 | 17 | 298 | 0.0 | 4.8 | 0.00 | 0.00 | 0.00 | 70 | 1015.5 |
| 20260506021534 | 17 | 0 | 0.0 | 4.8 | 0.00 | 0.00 | 0.00 | 68 | 1015.5 |
| 20260506020037 | 18 | 306 | 1.6 | 8.0 | 0.00 | 0.00 | 0.00 | 68 | 1015.4 |
| 20260506014545 | 18 | 256 | 1.6 | 6.4 | 0.00 | 0.00 | 0.00 | 67 | 1015.4 |
| 20260506013038 | 17 | 266 | 3.2 | 12.9 | 0.00 | 0.00 | 0.00 | 68 | 1015.4 |
| 20260506011541 | 18 | 277 | 1.6 | 11.3 | 0.00 | 0.00 | 0.00 | 68 | 1015.5 |
| 20260506010037 | 18 | 289 | 1.6 | 8.0 | 0.00 | 0.00 | 0.00 | 67 | 1015.5 |
| 20260506004541 | 18 | 267 | 3.2 | 6.4 | 0.00 | 0.00 | 0.00 | 67 | 1015.6 |
| 20260506003036 | 18 | 254 | 3.2 | 8.0 | 0.00 | 0.00 | 0.00 | 66 | 1015.6 |
| 20260506001544 | 18 | 296 | 1.6 | 11.3 | 0.00 | 0.00 | 0.00 | 66 | 1015.7 |
| 20260506000043 | 19 | 318 | 1.6 | 6.4 | 0.00 | 0.00 | 0.00 | 65 | 1015.8 |
| 20260505234548 | 18 | 55 | 1.6 | 8.0 | 0.00 | 0.00 | 0.00 | 65 | 1015.8 |
| 20260505233037 | 18 | 0 | 1.6 | 11.3 | 0.00 | 0.00 | 0.00 | 64 | 1016.0 |
| 20260505231547 | 18 | 199 | 3.2 | 11.3 | 0.00 | 0.00 | 0.00 | 66 | 1016.0 |
| 20260505230038 | 17 | 178 | 0.0 | 6.4 | 0.00 | 0.00 | 0.00 | 68 | 1016.1 |
| 20260505224539 | 18 | 0 | 1.6 | 9.7 | 0.00 | 0.00 | 0.00 | 67 | 1016.3 |
| 20260505223042 | 17 | 344 | 0.0 | 6.4 | 0.00 | 0.00 | 0.00 | 69 | 1016.5 |
| 20260505221539 | 17 | 273 | 1.6 | 12.9 | 0.00 | 0.00 | 0.00 | 70 | 1016.6 |
| 20260505220040 | 17 | 324 | 1.6 | 6.4 | 0.00 | 0.00 | 0.00 | 70 | 1016.6 |
| 20260505214548 | 16 | 282 | 0.0 | 4.8 | 0.00 | 0.00 | 0.00 | 72 | 1016.8 |
| 20260505213049 | 16 | 265 | 1.6 | 6.4 | 0.00 | 0.00 | 0.00 | 71 | 1016.9 |
| 20260505211537 | 16 | 141 | 4.8 | 9.7 | 0.00 | 0.00 | 0.00 | 71 | 1016.8 |
| 20260505210035 | 16 | 0 | 1.6 | 11.3 | 0.00 | 0.00 | 0.00 | 73 | 1016.9 |
| 20260505204537 | 16 | 304 | 1.6 | 9.7 | 0.00 | 0.00 | 0.00 | 72 | 1017.0 |
| 20260505203037 | 15 | 260 | 1.6 | 8.0 | 0.00 | 0.00 | 0.00 | 73 | 1017.0 |
| 20260505201547 | 15 | 227 | 1.6 | 11.3 | 0.00 | 0.00 | 0.00 | 72 | 1017.0 |
| 20260505200037 | 15 | 0 | 1.6 | 6.4 | 0.00 | 0.00 | 0.00 | 73 | 1017.0 |
| 20260505194537 | 15 | 0 | 0.0 | 8.0 | 0.00 | 0.00 | 0.00 | 75 | 1017.0 |
| 20260505193044 | 14 | 360 | 1.6 | 6.4 | 0.00 | 0.00 | 0.00 | 75 | 1017.0 |
| 20260505191534 | 13 | 158 | 3.2 | 9.7 | 0.00 | 0.00 | 0.00 | 76 | 1017.0 |
| 20260505190036 | 13 | 284 | 1.6 | 8.0 | 0.00 | 0.00 | 0.00 | 76 | 1017.0 |
| 20260505184537 | 13 | 170 | 1.6 | 9.7 | 0.00 | 0.00 | 0.00 | 77 | 1017.0 |
| 20260505183047 | 13 | 0 | 0.0 | 6.4 | 0.00 | 0.00 | 0.00 | 78 | 1017.1 |
| 20260505181535 | 13 | 225 | 1.6 | 9.7 | 0.00 | 0.00 | 0.00 | 78 | 1017.0 |
| 20260505180040 | 13 | 159 | 1.6 | 6.4 | 0.00 | 0.00 | 0.00 | 78 | 1016.8 |
| 20260505174540 | 13 | 360 | 1.6 | 6.4 | 0.00 | 0.00 | 0.00 | 79 | 1016.7 |
| 20260505173040 | 12 | 360 | 0.0 | 6.4 | 0.00 | 0.00 | 0.00 | 80 | 1016.7 |
| 20260505171541 | 12 | 360 | 0.0 | 8.0 | 0.00 | 0.00 | 0.00 | 80 | 1016.6 |
| 20260505170035 | 12 | 360 | 0.0 | 8.0 | 0.00 | 0.00 | 0.00 | 81 | 1016.6 |
| 20260505164538 | 12 | 360 | 0.0 | 6.4 | 0.00 | 0.00 | 0.00 | 81 | 1016.7 |
| 20260505163035 | 12 | 0 | 1.6 | 9.7 | 0.00 | 0.00 | 0.00 | 81 | 1016.5 |
| 20260505161536 | 12 | 360 | 0.0 | 4.8 | 0.00 | 0.00 | 0.00 | 81 | 1016.4 |
| 20260505153036 | 12 | 190 | 1.6 | 6.4 | 0.00 | 0.00 | 0.00 | 82 | 1016.3 |
| 20260505151535 | 12 | 0 | 0.0 | 8.0 | 0.00 | 0.00 | 0.00 | 82 | 1016.2 |
| 20260505124537 | 12 | 188 | 1.6 | 8.0 | 0.00 | 0.00 | 0.00 | 83 | 1014.9 |
| 20260505123054 | 12 | 248 | 0.0 | 4.8 | 0.00 | 0.00 | 0.00 | 84 | 1014.9 |
| 20260505121536 | 12 | 286 | 1.6 | 9.7 | 0.00 | 0.00 | 0.00 | 84 | 1014.8 |
| 20260505120041 | 12 | 0 | 0.0 | 9.7 | 0.00 | 0.00 | 0.00 | 84 | 1014.5 |
| 20260505114546 | 12 | 219 | 3.2 | 11.3 | 0.00 | 0.00 | 0.00 | 85 | 1014.6 |
| 20260505113034 | 12 | 206 | 0.0 | 6.4 | 0.00 | 0.00 | 0.00 | 85 | 1014.6 |
| 20260505111533 | 11 | 145 | 0.0 | 6.4 | 0.00 | 0.00 | 0.00 | 85 | 1014.6 |
| 20260505101530 | 11 | 0 | 0.0 | 6.4 | 0.00 | 0.00 | 0.00 | 86 | 1014.2 |
| 20260505100034 | 11 | 201 | 0.0 | 6.4 | 0.00 | 0.00 | 0.00 | 85 | 1014.1 |
| 20260505094534 | 11 | 168 | 1.6 | 11.3 | 0.00 | 0.00 | 0.00 | 85 | 1014.0 |
| 20260505093042 | 11 | 170 | 3.2 | 8.0 | 0.00 | 0.00 | 0.00 | 85 | 1013.9 |
| 20260505091543 | 11 | 186 | 1.6 | 11.3 | 0.00 | 0.00 | 0.00 | 86 | 1013.9 |
| 20260505090048 | 11 | 0 | 0.0 | 4.8 | 0.00 | 0.00 | 0.00 | 86 | 1013.8 |
| 20260505084535 | 11 | 152 | 1.6 | 6.4 | 0.00 | 0.00 | 0.00 | 87 | 1013.8 |
| 20260505083034 | 11 | 0 | 0.0 | 4.8 | 0.00 | 0.00 | 0.00 | 88 | 1013.8 |
| 20260505081538 | 11 | 0 | 0.0 | 0.0 | 0.00 | 0.00 | 0.00 | 88 | 1013.8 |
| 20260505080047 | 11 | 0 | 0.0 | 0.0 | 0.00 | 0.00 | 0.00 | 86 | 1013.7 |
| 20260505074535 | 11 | 0 | 0.0 | 1.6 | 0.00 | 0.00 | 0.00 | 87 | 1013.6 |
| 20260505073048 | 11 | 0 | 0.0 | 6.4 | 0.00 | 0.00 | 0.00 | 87 | 1013.3 |
| 20260505071533 | 11 | 236 | 0.0 | 6.4 | 0.00 | 0.00 | 0.00 | 86 | 1013.2 |
| 20260505070049 | 11 | 0 | 1.6 | 4.8 | 0.00 | 0.00 | 0.00 | 86 | 1013.2 |
| 20260505064537 | 11 | 0 | 0.0 | 0.0 | 0.00 | 0.00 | 0.00 | 85 | 1013.0 |
| 20260505063036 | 11 | 0 | 0.0 | 3.2 | 0.00 | 0.00 | 0.00 | 84 | 1012.9 |
| 20260505061533 | 12 | 0 | 0.0 | 4.8 | 0.00 | 0.00 | 0.00 | 84 | 1012.6 |
| 20260505060035 | 12 | 259 | 0.0 | 6.4 | 0.00 | 0.00 | 0.00 | 83 | 1012.5 |
| 20260505054530 | 12 | 0 | 0.0 | 3.2 | 0.00 | 0.00 | 0.00 | 83 | 1012.2 |
| 20260505053037 | 12 | 225 | 1.6 | 6.4 | 0.00 | 0.00 | 0.00 | 82 | 1012.2 |
| 20260505051536 | 12 | 288 | 0.0 | 6.4 | 0.00 | 0.00 | 0.00 | 81 | 1012.1 |
| 20260505050111 | 13 | 0 | 1.6 | 8.0 | 0.00 | 0.00 | 0.00 | 80 | 1012.0 |
| 20260505041548 | 13 | 0 | 1.6 | 9.7 | 0.00 | 0.00 | 0.00 | 77 | 1011.6 |
| 20260505040052 | 14 | 360 | 3.2 | 14.5 | 0.00 | 0.00 | 0.00 | 75 | 1011.5 |
| 20260505034537 | 15 | 226 | 1.6 | 9.7 | 0.00 | 0.00 | 0.00 | 72 | 1011.4 |
| 20260505033042 | 16 | 0 | 1.6 | 8.0 | 0.00 | 0.00 | 0.00 | 71 | 1011.1 |
| 20260505031544 | 16 | 360 | 3.2 | 9.7 | 0.00 | 0.00 | 0.00 | 69 | 1011.0 |
| 20260505030040 | 17 | 0 | 0.0 | 8.0 | 0.00 | 0.00 | 0.00 | 67 | 1010.8 |
| 20260505024537 | 18 | 291 | 1.6 | 12.9 | 0.00 | 0.00 | 0.00 | 65 | 1010.4 |